User: anonymous   Login
Location: Newark
(40.2531°N, 0.7525°W)
Time: 16:50:49
(UTC+00:00)
Language:

NUDT-PHONESAT - Orbit

View from above orbital plane
View from above orbital plane
View from above satellite
View from above satellite

Ground track
Ground track

The orbit data is extracted from the following two-line orbital elements,

1 40900U 15049B   19348.07417753  .00001826  00000-0  79700-4 0  9995
2 40900  97.4350 355.7046 0011078 281.2873 116.0185 15.23387535234813
Epoch (UTC): 14 December 2019 01:46:48
Eccentricity: 0.0011078
inclination: 97.4350°
perigee height: 488 km
apogee height: 503 km
right ascension of ascending node: 355.7046°
argument of perigee: 281.2873°
revolutions per day: 15.23387535
mean anomaly at epoch: 116.0185°
orbit number at epoch: 23481

The dashed part of the orbit path shows where the satellite is in the earth's shadow,  

DLR